Regional Weather Roundup
Issued by NWS

Home | Current Version | Previous Version | Graphics & Text | Print | Product List | Glossary On
Versions: 1 2 3 4 5 6 7 8 9 10 11 12 13 14 15 16 17 18 19 20 21 22 23 24 25 26 27 28 29 30 31 32 33 34 35 36 37 38 39 40 41 42 43 44 45 46 47 48 49 50
000
ASUS45 KPSR 282210
RWRAZ

ARIZONA HOURLY REGIONAL WEATHER ROUNDUP
NATIONAL WEATHER SERVICE PHOENIX AZ
300 PM MST FRI AUG 28 2015

NOTE: FAIR INDICATES FEW OR NO CLOUDS BELOW 12,000 FEET WITH NO
SIGNIFICANT WEATHER AND/OR OBSTRUCTIONS TO VISIBILITY.

AZZ001>003-036-282300-
NORTHWEST ARIZONA

CITY           SKY/WX    TMP DP  RH WIND       PRES   REMARKS
BULLHEAD CITY  PTSUNNY  108  54  16 SW6       29.79F HX 106
KINGMAN        PTSUNNY   94  49  21 W10       30.03F
$$

AZZ004>008-015-016-018-282300-
NORTH CENTRAL ARIZONA

CITY           SKY/WX    TMP DP  RH WIND       PRES   REMARKS
GRAND CANYON   PTSUNNY   81  45  28 MISG      30.31F
WILLIAMS       LGT RAIN  66  55  68 SE15G22   30.37R
PRESCOTT       SUNNY     91  45  20 VRB6      30.15F
FLAGSTAFF      PTSUNNY   77  47  34 SE7       30.33F
PAYSON         MOSUNNY   90  39  17 VRB5      30.16F
PAGE           MOSUNNY   95  43  16 MISG      30.10F
$$

AZZ009>014-017-282300-
NORTHEAST ARIZONA

CITY           SKY/WX    TMP DP  RH WIND       PRES   REMARKS
WINSLOW        SUNNY     93  46  19 N5        30.14F
SAINT JOHNS    SUNNY     86  46  24 VRB3      30.18F
WINDOW ROCK    CLOUDY    76  47  35 S10       30.29S
SHOW LOW       SUNNY     81  37  21 NE7       30.25F
$$

AZZ023-282300-
GREATER PHOENIX AREA

CITY           SKY/WX    TMP DP  RH WIND       PRES   REMARKS
PHOENIX        MOSUNNY  107  53  16 W5        29.79F HX 105
BUCKEYE        SUNNY    104  55  20 S8        29.80F HX 103
GLENDALE       MOSUNNY  106  55  18 SE6       29.81F HX 105
LUKE AFB       SUNNY    104  56  20 W7        29.79F HX 103
SCOTTSDALE     SUNNY    105  52  17 SW8       29.83F HX 103
MESA-FALCON    MOSUNNY  104  55  20 S9        29.81  HX 103
MESA-GATEWAY   MOSUNNY  102  57  22 SW8       29.84F HX 101
CHANDLER       MOSUNNY  102  57  22 SW7       29.82  HX 101
$$

AZZ027-028-282300-
SOUTHWEST MARICOPA COUNTY AND PINAL COUNTY

CITY           SKY/WX    TMP DP  RH WIND       PRES   REMARKS
CASA GRANDE    SUNNY    102  57  22 CALM      29.83F HX 101
GILA BEND      MOSUNNY  106  55  18 SW5       29.78F HX 104
$$

AZZ503-504-507>509-282300-
SOUTHEAST ARIZONA

CITY           SKY/WX    TMP DP  RH WIND       PRES   REMARKS
TUCSON         SUNNY    100  50  18 CALM      29.94F
DAVIS-MONTHAN  SUNNY     98  52  21 NE3       29.93F
RYAN FIELD     SUNNY     99  55  23 NW6       29.93F
NOGALES        MOSUNNY   95  48  20 CALM      30.03F
SIERRA VISTA   PTSUNNY   90  53  28 SE9       30.11F
DOUGLAS        MOSUNNY   90  55  30 S6        30.05F
SAFFORD        SUNNY     97  54  23 SW8       29.94F
$$

AZZ020-021-025-026-031-282300-
SOUTHWEST ARIZONA

CITY           SKY/WX    TMP DP  RH WIND       PRES   REMARKS
YUMA           MOSUNNY  109  61  21 CALM      29.75F HX 111
$$

CAZ031-033-041-043-047-048-061-282300-
SOUTHERN CALIFORNIA

CITY           SKY/WX    TMP DP  RH WIND       PRES   REMARKS
DOWNTOWN L.A.  SUNNY     93  55  27 CALM      29.83F
L.A. AIRPORT   MOSUNNY   86  62  44 W14       29.85F
SAN DIEGO      MOSUNNY   87  59  38 SW8       29.85F
BURBANK        SUNNY    101  52  19 S10       29.84F
ONTARIO        MOSUNNY  105  47  14 W14       29.84F HX 101
RIVERSIDE      SUNNY    104  50  16 W10G23    29.83F HX 101
PALM SPRINGS   MOSUNNY  111  54  15 E10       29.78F HX 109
EL CENTRO NAS  MOSUNNY  110  58  18 VRB5      29.74F HX 110
IMPERIAL       SUNNY    112  59  18 SE10      29.73F HX 113
BLYTHE         MOSUNNY  109  60  20 S12G18    29.76F HX 110
NEEDLES        MOSUNNY  111  47  12 W7        29.79F HX 107
$$

NVZ020-UTZ003-282300-
SOUTHERN NEVADA-UTAH

CITY           SKY/WX    TMP DP  RH WIND       PRES   REMARKS
LAS VEGAS      MOSUNNY  104  47  14 N8        29.87F HX 100
SALT LAKE CITY MOSUNNY   94  33  11 N12       30.09F
$$

NMZ009-TXZ055-282300-
NEW MEXICO-WEST TEXAS

CITY           SKY/WX    TMP DP  RH WIND       PRES   REMARKS
ALBUQUERQUE    PTSUNNY   91  45  20 NE8       30.13F
EL PASO        MOSUNNY   96  49  20 S9        29.98F
$$


........................KEY........................
SKY/WX - SKY CONDITION/WEATHER
TMP    - TEMPERATURE IN FAHRENHEIT
DP     - DEW POINT IN FAHRENHEIT
RH     - RELATIVE HUMIDITY IN PERCENT
WIND   - DIRECTION AND SPEED IN MILES PER HOUR (MPH)
VRB    - VARIABLE WIND DIRECTION
PRES   - MEAN SEA LEVEL PRESSURE IN INCHES OF MERCURY
         F - FALLING PRESSURE   R - RISING PRESSURE
         S - STEADY PRESSURE
VSB    - VISIBILITY IN MILES
HX     - HEAT INDEX IN FAHRENHEIT
WCI    - WIND CHILL INDEX IN FAHRENHEIT
TC     - TEMPERATURE IN CELSIUS WHICH IS ALSO KNOWN AS
         TEMPERATURE IN CENTIGRADE
AFB    - AIR FORCE BASE
         LUKE AFB IS LUKE AIR FORCE BASE
         DAVIS-MONTHAN IS DAVIS-MONTHAN AIR FORCE BASE
NAS    - NAVAL AIR STATION
         EL CENTRO NAS IS EL CENTRO NAVAL AIR STATION
N/A    - NOT AVAILABLE



USA.gov is the U.S. government's official web portal to all federal, state and local government web resources and services.